Weather in Razdolye

Russia / Kursk Oblast     51°45′15″N   37°59′24″E
temp.,
°C
wind,
m/s
gust,
m/s
humid.,
%
clouds,
%
prec.,
mm/h
press.,
hPa
HPBL,
m
27 november, sat
sat2700:00−1s511785 0.0 1017286
03:00−2sse51185100 0.0 1015261
06:00−1sse61491100 0.0 1014342
09:00+1sse81981100 0.0 1011516
12:00+3sse91978100 0.0 1009717
15:00+2sse91993100 1.8 1006734
18:00+3s81791100 1.0 1006534
21:00+3s71491100 1.1 1006381
28 november, sun
sun2800:00+3s51295100 0.0 1006292
03:00+3s5119896 0.0 1006234
06:00+4ssw41099100 0.0 1006258
09:00+5ssw3798100 0.1 1008187
12:00+6ssw3693100 0.0 1008243
15:00+6ssw348899 0.0 1010126
18:00+6sse3589100 0.0 1010115
21:00+6sse3785100 0.0 1010140
29 november, mon
mon2900:00+4sse41095100 0.0 1011208
03:00+4se41196100 0.0 1009208
06:00+6se51598100 0.3 1007426
09:00+8se71497100 2.1 1004560
12:00+8sse71597100 0.8 1001704
15:00+9sse81694100 1.2 998816
18:00+10sse91894100 4.6 994943
21:00+11s91794100 6.8 989950
30 november, tue
tue3000:00+11ssw101888100 4.9 9861217
03:00+10sw111877100 5.9 9861406
06:00+6sw101677100 0.1 9901124
09:00+3wsw101669100 0.1 9931201
12:00+4sw915625 0.0 9931152
15:00+3sw915657 0.0 9941125
18:00+2sw9157086 0.0 9941159
21:00+2sw9157016 0.0 9931137
1 december, wed
wed100:00+1wsw8137496 0.0 9931182
03:00−1wsw71285100 0.1 995787
06:00−1w7128599 0.1 996916
09:00−2w71175100 0.1 998831
12:00−1w71065100 0.0 10001169
15:00−2wsw6979100 0.1 1000730
18:00−2sw3995100 0.4 1000588
21:00−1wsw599078 0.8 1000647